Kosmos-2545

operational
NORAD ID: 45358 Int'l Des: 2020-018 Owner: VVKOV/IACG Country: RU Constellation: GLONASS
MEOCIRCULAR

关于 Kosmos-2545

正在加载描述...

实时位置

正在加载3D地球...

即将过境

高度历史

Altitude vs Time

uPlot chart will show altitude changes over time

两行轨道根数

1 45358U 20018A 25299.06386708 -.00000029 00000-0 00000+0 0 9992
2 45358 64.4959 320.6430 0012374 243.4307 116.4901 2.13102628 43679
Epoch: Oct 26, 2025 • Age: 14 hours

当前状态

高度 19170.4 km
速度 3.95 km/s
星下点 61.39°N, 118.39°E
发射日期 Mar 16, 2020
运行时间 5.6 years
类型 other

技术详情

分类 Payload
质量 1450.00 kg
干质量 1200.00 kg
总质量 1450.00 kg
长度 4.00 m
直径 1.50 m
跨度 7.80 m
形状 Cyl + Ant + 2 Pan
制造商 RESH
平台类型 Uragan
阶段状态 In Orbit
所有者/国家 VVKOV/IACG/RU

大型星座

Loading constellations...